Voltar ao catálogo

SL-8 R/B

AtivoPO
NORAD 24306·ROCKET BODY·🇷🇺 Russia

Lançado Sep 5, 1996 de Plesetsk Cosmodrome

Loading…

Próximas Passagens (próximas 24 horas)

TLE

AtualizadoSource: Space-Track

Época: Sep 14, 2026, 05:14 UTC

1 24306U 96052C   26257.21826509  .00000075  00000-0  63000-4 0  9997
2 24306  82.9396 356.7758 0025228 325.6310  34.3213 13.75269601506449

Acompanhe SL-8 R/B em tempo real com AllMySat

Download on the App Store